Dansville, NY

6:58 PM EDT on July 26, 2016 (GMT -0400)
Dansville Municipal

Weather History for KDSV - July, 2013

Change the Weather History Date:

Monday, July 1, 2013

  Actual Average Record
Temperature  
Mean Temperature 65 °F -  
Max Temperature 68 °F 79 °F 97 °F (1963)
Min Temperature 62 °F 55 °F 44 °F (1965)
Growing Degree Days 15 (Base 50)    
Moisture  
Dew Point 64 °F    
Average Humidity 94    
Maximum Humidity 100    
Minimum Humidity 87    
Precipitation  
Precipitation 0.21 in - - ()
Sea Level Pressure  
Sea Level Pressure 30.00 in    
Wind  
Wind Speed 4 mph (NW)    
Max Wind Speed 12 mph    
Max Gust Speed -    
Visibility 7 miles    
Events Rain    
Averages and records for this station are not official NWS values.
T = Trace of Precipitation, MM = Missing Value Source: NWS Daily Summary

Daily Weather History Graph

Daily Weather History Graph

Search for Another Location

Airport or City:

Trip Planner

Search our weather history database for the weather conditions in past years. The results will help you decide how hot, cold, wet, or windy it might be!

Date:

Astronomy

Jul. 01, 2013 Rise Set
Actual Time 5:37 AM EDT 8:52 PM EDT
Civil Twilight 5:02 AM EDT 9:26 PM EDT
Nautical Twilight 4:17 AM EDT 10:11 PM EDT
Astronomical Twilight 3:22 AM EDT 11:06 PM EDT
Moon 1:11 AM EDT (7/1) 3:01 PM EDT (7/1)
Length of Visible Light 16h 24m
Length of Day
15h 14m
Waning Crescent, 35% of the Moon is Illuminated
Jul 1
Waning Crescent
Jul 8
New
Jul 15
First Quarter
Jul 22
Full
Jul 29
Last Quarter

Hourly Weather History & Observations

Time (EDT) Temp. Dew Point Humidity Pressure Visibility Wind Dir Wind Speed Gust Speed Precip Events Conditions
12:54 AM 64.9 °F 63.0 °F 93% 29.96 in 8.0 mi Calm Calm - N/A   Clear
1:26 AM 64.4 °F 64.4 °F 100% 29.94 in 6.0 mi Calm Calm - N/A   Mostly Cloudy
1:54 AM 64.9 °F 64.0 °F 97% 29.96 in 6.0 mi Calm Calm - N/A   Overcast
2:54 AM 64.9 °F 64.0 °F 97% 29.96 in 5.0 mi Calm Calm - N/A   Mostly Cloudy
3:35 AM 64.4 °F 62.6 °F 94% 29.93 in 6.0 mi Calm Calm - N/A   Scattered Clouds
3:44 AM 64.4 °F 62.6 °F 94% 29.93 in 5.0 mi Calm Calm - N/A   Mostly Cloudy
3:54 AM 64.9 °F 63.0 °F 93% 29.95 in 5.0 mi Calm Calm - N/A   Overcast
4:46 AM 64.4 °F 62.6 °F 94% 29.96 in 8.0 mi NNW 3.5 mph - N/A   Mostly Cloudy
4:54 AM 64.0 °F 63.0 °F 96% 29.97 in 8.0 mi Calm Calm - N/A   Mostly Cloudy
5:54 AM 64.9 °F 62.1 °F 90% 29.99 in 10.0 mi Calm Calm - N/A   Overcast
6:15 AM 64.4 °F 62.6 °F 94% 29.97 in 10.0 mi Calm Calm - N/A   Mostly Cloudy
6:29 AM 64.4 °F 62.6 °F 94% 29.98 in 9.0 mi Calm Calm - N/A   Mostly Cloudy
6:52 AM 64.4 °F 62.6 °F 94% 29.97 in 7.0 mi Calm Calm - N/A   Overcast
6:54 AM 64.9 °F 64.0 °F 97% 29.99 in 7.0 mi Calm Calm - N/A   Overcast
7:33 AM 66.2 °F 64.4 °F 94% 29.98 in 8.0 mi NNW 3.5 mph - N/A   Overcast
7:54 AM 66.0 °F 64.0 °F 93% 30.00 in 8.0 mi Calm Calm - N/A   Overcast
8:07 AM 66.2 °F 64.4 °F 94% 29.99 in 9.0 mi Calm Calm - N/A   Overcast
8:21 AM 66.2 °F 64.4 °F 94% 29.99 in 8.0 mi NW 3.5 mph - N/A   Overcast
8:54 AM 66.0 °F 64.0 °F 93% 30.00 in 7.0 mi North 4.6 mph - 0.01 in   Overcast
9:13 AM 66.2 °F 64.4 °F 94% 29.99 in 8.0 mi NW 4.6 mph - 0.00 in Rain Light Rain
9:24 AM 68.0 °F 64.4 °F 88% 29.98 in 8.0 mi NW 6.9 mph - 0.00 in   Overcast
9:54 AM 68.0 °F 64.0 °F 87% 30.00 in 10.0 mi NNW 8.1 mph - 0.00 in   Overcast
10:37 AM 68.0 °F 64.4 °F 88% 29.98 in 9.0 mi WNW 4.6 mph - 0.00 in Rain Light Rain
10:54 AM 68.0 °F 64.9 °F 90% 30.01 in 7.0 mi WNW 4.6 mph - 0.00 in Rain Light Rain
11:46 AM 66.2 °F 64.4 °F 94% 29.99 in 4.0 mi NW 5.8 mph - 0.05 in Rain Light Rain
11:54 AM 66.9 °F 64.9 °F 93% 30.01 in 5.0 mi NW 8.1 mph - 0.05 in Rain Light Rain
12:13 PM 66.2 °F 64.4 °F 94% 29.99 in 6.0 mi NW 8.1 mph - 0.01 in Rain Light Rain
12:54 PM 68.0 °F 64.9 °F 90% 30.01 in 8.0 mi WNW 6.9 mph - 0.02 in Rain Light Rain
1:19 PM 68.0 °F 64.4 °F 88% 29.99 in 9.0 mi NW 6.9 mph - 0.00 in Rain Light Rain
1:50 PM 68.0 °F 64.4 °F 88% 29.99 in 10.0 mi NNW 9.2 mph - 0.00 in   Overcast
1:54 PM 68.0 °F 64.9 °F 90% 30.00 in 10.0 mi NNW 10.4 mph - 0.00 in   Overcast
2:37 PM 66.2 °F 64.4 °F 94% 29.99 in 8.0 mi NW 11.5 mph - 0.00 in Rain Light Rain
2:54 PM 66.9 °F 64.9 °F 93% 30.01 in 7.0 mi NW 9.2 mph - 0.00 in Rain Light Rain
3:52 PM 66.2 °F 64.4 °F 94% 29.99 in 4.0 mi NW 11.5 mph - 0.02 in Rain Light Rain
3:54 PM 66.0 °F 64.0 °F 93% 30.01 in 4.0 mi NW 10.4 mph - 0.02 in Rain Light Rain
4:33 PM 66.2 °F 64.4 °F 94% 30.00 in 2.0 mi WNW 8.1 mph - 0.04 in Rain Rain
4:41 PM 66.2 °F 64.4 °F 94% 30.00 in 3.0 mi NW 8.1 mph - 0.05 in Rain Light Rain
4:54 PM 66.0 °F 64.0 °F 93% 30.02 in 3.0 mi NW 6.9 mph - 0.06 in Rain Light Rain
5:06 PM 66.2 °F 64.4 °F 94% 30.00 in 4.0 mi NW 6.9 mph - 0.00 in Rain Light Rain
5:54 PM 66.0 °F 64.0 °F 93% 30.02 in 3.0 mi NW 8.1 mph - 0.01 in Rain Light Rain
6:01 PM 66.2 °F 64.4 °F 94% 30.00 in 3.0 mi NW 6.9 mph - 0.00 in Rain Light Rain
6:08 PM 66.2 °F 64.4 °F 94% 30.00 in 2.5 mi NW 6.9 mph - 0.01 in Rain Light Rain
6:16 PM 66.2 °F 64.4 °F 94% 30.00 in 4.0 mi NW 5.8 mph - 0.01 in Rain Light Rain
6:30 PM 66.2 °F 64.4 °F 94% 30.00 in 5.0 mi NW 5.8 mph - 0.01 in   Overcast
6:54 PM 66.0 °F 64.9 °F 96% 30.03 in 8.0 mi NW 5.8 mph - 0.01 in   Overcast
7:20 PM 66.2 °F 64.4 °F 94% 30.01 in 9.0 mi NW 8.1 mph - N/A   Overcast
7:29 PM 66.2 °F 64.4 °F 94% 30.01 in 6.0 mi NW 6.9 mph - 0.00 in Rain Light Rain
7:54 PM 66.0 °F 64.0 °F 93% 30.04 in 6.0 mi NW 8.1 mph - 0.01 in   Overcast
8:15 PM 66.2 °F 64.4 °F 94% 30.03 in 2.5 mi NW 5.8 mph - 0.01 in Rain Light Rain
8:23 PM 66.2 °F 64.4 °F 94% 30.03 in 4.0 mi NW 9.2 mph - 0.01 in Rain Light Rain
8:32 PM 64.4 °F 64.4 °F 100% 30.03 in 5.0 mi NW 8.1 mph - 0.01 in Rain Light Rain
8:54 PM 64.9 °F 63.0 °F 93% 30.05 in 8.0 mi NW 6.9 mph - 0.01 in   Overcast
9:02 PM 64.4 °F 64.4 °F 100% 30.04 in 8.0 mi NNW 8.1 mph - N/A   Overcast
9:18 PM 64.4 °F 62.6 °F 94% 30.03 in 8.0 mi NW 9.2 mph - 0.00 in Rain Light Rain
9:46 PM 64.4 °F 62.6 °F 94% 30.05 in 10.0 mi NW 9.2 mph - 0.00 in   Overcast
9:54 PM 64.0 °F 63.0 °F 96% 30.07 in 10.0 mi NW 9.2 mph - 0.01 in   Overcast
10:54 PM 64.0 °F 62.1 °F 93% 30.08 in 8.0 mi NW 9.2 mph - N/A   Overcast
11:02 PM 62.6 °F 62.6 °F 100% 30.06 in 7.0 mi NW 8.1 mph - N/A   Overcast
11:54 PM 62.1 °F 60.1 °F 93% 30.08 in 10.0 mi NW 8.1 mph - N/A   Overcast